Regional Weather Roundup
Issued by NWS

Current Version | Previous Version | Text Only | Print | Product List | Glossary On
Versions: 1 2 3 4 5 6 7 8 9 10 11 12 13 14 15 16 17 18 19 20 21 22 23 24 25 26 27 28 29 30 31 32 33 34 35 36 37 38 39 40 41 42 43 44 45 46 47 48 49 50
000
ASUS45 KSLC 301210
RWRUT

UTAH REGIONAL WEATHER ROUNDUP
NATIONAL WEATHER SERVICE SALT LAKE CITY UT
500 AM MST FRI JAN 30 2015

UTZ001>011-023>025-301300-

NORTHERN UTAH

CITY           SKY/WX    TMP DP  RH WIND       PRES   REMARKS
BRIGHAM CITY   MOCLDY    36  32  85 NW3       30.18F
HILL AFB       CLOUDY    39  30  71 E7        30.17F WCI  34
LOGAN          FOG       32  32 100 CALM      30.21F VSB 1/4
OGDEN          CLOUDY    38  33  82 CALM      30.17F
PROVO AIRPORT  CLOUDY    37  36  93 NW3       30.18F
SALT LAKE CITY MOCLDY    37  35  92 CALM      30.18F
VERNAL         CLOUDY    34  33  96 NW3       30.23F
WENDOVER       CLOUDY    37  30  75 CALM      30.19F
HEBER CITY     CLOUDY    32  32 100 SE3       30.19F FOG
WEST JORDAN    CLOUDY    37  37 100 CALM      30.18F

$$

UTZ012>022-026-027-301300-

SOUTHERN/CENTRAL UTAH

CITY           SKY/WX    TMP DP  RH WIND       PRES   REMARKS
BLANDING       CLOUDY    33  32  99 SE7       30.29F WCI  26
BRYCE CANYON   FLURRIES  32  30  92 E8        30.12F WCI  25
CEDAR CITY     CLOUDY    37  36  96 CALM      30.07F FOG
DELTA          CLOUDY    37  37 100 CALM      30.14F
HANKSVILLE     CLOUDY    39  37  93 CALM      30.20F
MILFORD        LGT RAIN  39  37  92 N14       30.10F FOG     WCI  31
MOAB/CYNLANDS  CLOUDY    39  38  96 W5        30.17F
PRICE          MIX PCPN  37  34  89 CALM      30.19F
ST GEORGE      CLOUDY    46  43  87 NW3       30.06F
KANAB            N/A     41  37  87 NE9G16    30.10F

$$

REGIONAL REPORTS     COLORADO/ARIZONA

CITY           SKY/WX    TMP DP  RH WIND       PRES   REMARKS
CRAIG, CO      CLOUDY    33  31  92 NE5       30.25F WCI  29
GRAND JUNCTION CLOUDY    36  33  89 CALM      30.20F
RIFLE          CLOUDY    33  28  81 CALM      30.22F
MONTROSE       CLOUDY    38  30  73 CALM      30.23F
CORTEZ         CLOUDY    38  29  70 CALM      30.23S
PAGE, AZ       NOT AVBL
GRAND CANYON   LGT RAIN  37  34  89 E13       30.04F WCI  29
KINGMAN        LGT RAIN  48  46  93 N8        29.96F
FLAGSTAFF      LGT RAIN  37  36  96 E8        30.04F WCI  31

$$

REGIONAL REPORTS    NEVADA/IDAHO/WYOMING

CITY           SKY/WX    TMP DP  RH WIND       PRES   REMARKS
LAS VEGAS, NV  LGT RAIN  55  44  66 CALM      29.95F
ELY            FOG       34  34 100 N9        30.13F VSB 1   WCI  27
ELKO           CLOUDY    34  31  88 CALM      30.14F
POCATELLO, ID  CLEAR     29  29 100 CALM      30.24F
BURLEY         CLOUDY    32  30  92 E3        30.23F
EVANSTON, WY   MOCLDY    29  25  85 N5        30.21F WCI  24
ROCK SPRINGS   CLOUDY    28  26  92 W7        30.21F WCI  21
KEMMERER       CLOUDY    25  21  86 N8        30.21F WCI  16

$$



USA.gov is the U.S. government's official web portal to all federal, state and local government web resources and services.